QPF
0.00 0.00 0.01 0.00 0.00 0.00 0.00 0.00 0.00 0.00 0.00 0.00 0.00 0.00 0.00 0.00 0.00 0.00 0.02 0.02 0.04 0.09 0.07 0.05 0.06 0.04 0.01 0.00 0.01 0.06 0.06 0.06 0.08 0.17 0.17 0.11 0.12 0.11 0.03 0.04 0.06 0.00 0.00
0.00 0.01 0.01 0.00 0.00 0.00 0.00 0.00 0.00 0.00 0.00 0.00 0.00 0.00 0.00 0.00 0.00 0.02 0.05 0.08 0.11 0.10 0.06 0.03 0.05 0.06 0.04 0.04 0.06 0.13 0.16 0.14 0.13 0.07 0.05 0.01 0.09 0.12 0.02 0.03 0.02 0.00 0.01
0.00 0.00 0.00 0.00 0.00 0.00 0.00 0.00 0.00 0.00 0.00 0.00 0.00 0.00 0.00 0.00 0.02 0.08 0.14 0.14 0.08 0.02 0.06 0.04 0.01 0.07 0.05 0.06 0.04 0.09 0.15 0.15 0.12 0.02 0.00 0.00 0.01 0.01 0.01 0.01 0.01 0.00 0.00
0.00 0.00 0.00 0.00 0.00 0.00 0.00 0.00 0.00 0.00 0.00 0.00 0.00 0.00 0.00 0.01 0.05 0.10 0.08 0.07 0.12 0.06 0.07 0.10 0.01 0.06 0.10 0.07 0.07 0.12 0.15 0.16 0.06 0.00 0.00 0.00 0.00 0.00 0.00 0.00 0.01 0.01 0.02
0.00 0.00 0.00 0.00 0.00 0.00 0.00 0.00 0.00 0.00 0.00 0.00 0.00 0.00 0.02 0.10 0.03 0.07 0.09 0.07 0.07 0.11 0.08 0.11 0.10 0.17 0.10 0.06 0.06 0.10 0.17 0.10 0.00 0.00 0.00 0.00 0.00 0.00 0.00 0.00 0.01 0.02 0.02
0.00 0.00 0.00 0.00 0.00 0.00 0.00 0.00 0.00 0.00 0.00 0.00 0.00 0.00 0.08 0.06 0.00 0.00 0.04 0.03 0.02 0.06 0.10 0.15 0.08 0.09 0.02 0.01 0.07 0.07 0.08 0.02 0.00 0.00 0.00 0.00 0.00 0.00 0.00 0.00 0.00 0.00 0.05
0.00 0.00 0.00 0.00 0.00 0.00 0.00 0.00 0.00 0.00 0.00 0.04 0.01 0.00 0.08 0.02 0.00 0.00 0.01 0.01 0.04 0.02 0.02 0.03 0.01 0.00 0.00 0.00 0.00 0.00 0.03 0.00 0.00 0.00 0.00 0.00 0.00 0.00 0.02 0.00 0.00 0.00 0.00
0.00 0.00 0.00 0.00 0.00 0.00 0.00 0.00 0.00 0.00 0.03 0.05 0.05 0.06 0.06 0.00 0.00 0.00 0.00 0.00 0.00 0.00 0.01 0.01 0.01 0.00 0.00 0.00 0.00 0.00 0.00 0.00 0.00 0.00 0.00 0.00 0.00 0.00 0.00 0.00 0.00 0.00 0.00
0.00 0.00 0.00 0.00 0.00 0.00 0.00 0.00 0.01 0.01 0.04 0.05 0.09 0.08 0.03 0.00 0.00 0.00 0.00 0.00 0.01 0.01 0.00 0.00 0.00 0.00 0.00 0.00 0.01 0.00 0.00 0.00 0.00 0.00 0.00 0.00 0.00 0.00 0.00 0.00 0.00 0.00 0.00
0.00 0.00 0.00 0.00 0.00 0.00 0.00 0.00 0.00 0.00 0.01 0.03 0.07 0.04 0.00 0.00 0.00 0.00 0.02 0.00 0.00 0.01 0.01 0.00 0.00 0.00 0.00 0.00 0.00 0.00 0.00 0.00 0.00 0.00 0.00 0.00 0.00 0.00 0.00 0.00 0.00 0.00 0.00
0.00 0.00 0.00 0.00 0.00 0.00 0.00 0.01 0.00 0.00 0.01 0.04 0.05 0.02 0.00 0.00 0.00 0.00 0.00 0.00 0.00 0.00 0.00 0.00 0.00 0.00 0.00 0.00 0.00 0.00 0.00 0.00 0.00 0.00 0.00 0.00 0.00 0.00 0.00 0.01 0.00 0.00 0.00
0.00 0.00 0.00 0.00 0.00 0.00 0.00 0.01 0.00 0.02 0.04 0.04 0.05 0.01 0.00 0.00 0.00 0.00 0.00 0.00 0.00 0.00 0.00 0.00 0.00 0.00 0.00 0.00 0.00 0.00 0.00 0.00 0.00 0.00 0.00 0.00 0.01 0.02 0.01 0.01 0.01 0.01 0.01
0.00 0.00 0.00 0.00 0.00 0.00 0.04 0.06 0.07 0.05 0.04 0.05 0.07 0.03 0.00 0.00 0.00 0.00 0.00 0.00 0.00 0.00 0.00 0.00 0.00 0.01 0.01 0.00 0.00 0.00 0.00 0.00 0.00 0.00 0.00 0.00 0.00 0.00 0.02 0.04 0.04 0.02 0.01
0.00 0.00 0.00 0.00 0.00 0.00 0.03 0.10 0.16 0.18 0.12 0.11 0.08 0.04 0.00 0.00 0.00 0.00 0.00 0.00 0.00 0.00 0.00 0.00 0.01 0.01 0.00 0.00 0.00 0.00 0.00 0.00 0.00 0.00 0.00 0.00 0.01 0.02 0.03 0.03 0.01 0.00 0.00
0.00 0.00 0.00 0.00 0.00 0.02 0.11 0.16 0.15 0.12 0.09 0.08 0.06 0.03 0.00 0.00 0.00 0.00 0.00 0.00 0.00 0.00 0.00 0.00 0.00 0.00 0.00 0.00 0.00 0.01 0.02 0.00 0.01 0.02 0.01 0.01 0.01 0.01 0.01 0.00 0.00 0.00 0.00
0.00 0.00 0.00 0.00 0.00 0.00 0.00 0.00 0.02 0.00 0.00 0.00 0.00 0.00 0.00 0.00 0.00 0.00 0.00 0.00 0.00 0.00 0.01 0.01 0.00 0.00 0.00 0.01 0.01 0.04 0.04 0.02 0.03 0.02 0.01 0.00 0.00 0.00 0.00 0.00 0.00 0.00 0.00
0.00 0.00 0.00 0.00 0.00 0.00 0.00 0.00 0.00 0.00 0.00 0.00 0.00 0.00 0.00 0.00 0.00 0.00 0.00 0.00 0.00 0.00 0.01 0.01 0.00 0.00 0.01 0.02 0.03 0.03 0.02 0.03 0.02 0.00 0.00 0.00 0.00 0.00 0.00 0.00 0.00 0.00 0.00
0.00 0.00 0.00 0.00 0.00 0.00 0.00 0.00 0.00 0.00 0.00 0.00 0.00 0.00 0.00 0.00 0.00 0.00 0.00 0.00 0.00 0.00 0.00 0.00 0.00 0.00 0.01 0.03 0.01 0.01 0.00 0.00 0.00 0.00 0.00 0.00 0.00 0.00 0.00 0.00 0.00 0.00 0.00
0.00 0.00 0.00 0.00 0.00 0.00 0.00 0.00 0.00 0.00 0.00 0.00 0.00 0.00 0.00 0.00 0.00 0.00 0.00 0.00 0.00 0.01 0.00 0.00 0.00 0.00 0.01 0.01 0.00 0.00 0.00 0.00 0.00 0.00 0.00 0.00 0.00 0.00 0.00 0.00 0.00 0.00 0.00
0.00 0.00 0.00 0.00 0.00 0.00 0.00 0.00 0.00 0.00 0.00 0.00 0.00 0.00 0.00 0.00 0.00 0.00 0.00 0.00 0.00 0.00 0.00 0.00 0.00 0.00 0.00 0.00 0.00 0.00 0.00 0.00 0.00 0.00 0.00 0.00 0.00 0.00 0.00 0.00 0.00 0.00 0.00
0.00 0.00 0.00 0.00 0.00 0.00 0.00 0.00 0.00 0.00 0.00 0.00 0.00 0.00 0.00 0.00 0.00 0.00 0.00 0.00 0.00 0.00 0.00 0.00 0.00 0.00 0.00 0.00 0.00 0.00 0.00 0.00 0.00 0.00 0.00 0.00 0.00 0.00 0.00 0.00 0.00 0.00 0.00
0.00 0.00 0.00 0.00 0.00 0.00 0.00 0.00 0.00 0.00 0.00 0.00 0.00 0.00 0.00 0.00 0.00 0.00 0.00 0.00 0.00 0.00 0.00 0.00 0.00 0.00 0.00 0.00 0.00 0.00 0.00 0.00 0.00 0.00 0.00 0.00 0.00 0.00 0.00 0.00 0.00 0.00 0.00
0.00 0.00 0.00 0.00 0.00 0.00 0.00 0.00 0.00 0.00 0.00 0.00 0.00 0.00 0.00 0.00 0.00 0.00 0.00 0.00 0.00 0.00 0.00 0.00 0.00 0.00 0.00 0.00 0.00 0.00 0.00 0.00 0.00 0.00 0.00 0.00 0.00 0.00 0.00 0.00 0.00 0.00 0.00
0.00 0.00 0.00 0.00 0.00 0.00 0.00 0.00 0.00 0.00 0.01 0.01 0.00 0.00 0.00 0.00 0.00 0.00 0.00 0.00 0.00 0.00 0.00 0.00 0.00 0.00 0.00 0.00 0.00 0.00 0.00 0.00 0.00 0.00 0.00 0.00 0.00 0.00 0.00 0.00 0.00 0.00 0.00
0.00 0.00 0.00 0.00 0.00 0.00 0.00 0.00 0.00 0.00 0.00 0.01 0.00 0.00 0.00 0.00 0.00 0.00 0.00 0.00 0.00 0.00 0.00 0.00 0.00 0.01 0.00 0.00 0.00 0.00 0.00 0.00 0.00 0.00 0.00 0.00 0.00 0.00 0.00 0.00 0.00 0.00 0.00
0.00 0.00 0.01 0.01 0.00 0.00 0.00 0.00 0.00 0.00 0.00 0.00 0.00 0.00 0.00 0.00 0.00 0.00 0.00 0.00 0.00 0.00 0.00 0.00 0.00 0.00 0.00 0.00 0.00 0.00 0.00 0.00 0.00 0.00 0.00 0.00 0.00 0.00 0.00 0.00 0.00 0.00 0.00
MSLP
996.44 997.14 997.82 998.42 998.99 999.44 999.82 1000.38 1000.89 1001.29 1001.82 1002.35 1002.94 1003.47 1003.95 1004.38 1004.78 1005.16 1005.15 1005.29 1005.87 1006.56 1006.82 1006.85 1007.00 1007.38 1006.94 1007.29 1007.69 1008.54 1008.98 1009.38 1009.50 1009.99 1010.08 1010.19 1010.35 1010.48 1010.92 1011.65 1012.08 1012.65 1013.83
997.10 997.80 998.34 998.71 999.18 999.69 1000.21 1000.69 1001.11 1001.53 1001.98 1002.46 1003.05 1003.47 1003.81 1004.14 1004.65 1004.92 1005.19 1005.13 1005.81 1006.31 1006.53 1006.47 1006.50 1007.02 1007.02 1007.12 1007.48 1008.33 1008.76 1009.07 1009.42 1010.03 1010.53 1010.97 1011.07 1011.36 1011.90 1012.36 1012.86 1013.40 1014.18
997.18 997.99 998.48 999.08 999.47 1000.04 1000.59 1001.01 1001.42 1001.92 1002.31 1002.72 1003.08 1003.28 1003.46 1003.69 1004.20 1004.69 1005.11 1005.24 1005.55 1005.86 1006.23 1006.24 1006.12 1006.71 1006.99 1007.26 1007.48 1008.16 1008.58 1008.99 1009.36 1009.63 1011.11 1011.70 1011.89 1012.29 1012.80 1013.22 1013.62 1014.31 1015.07
997.20 998.09 998.86 999.57 1000.05 1000.56 1001.01 1001.44 1001.79 1002.13 1002.48 1002.83 1002.96 1002.95 1003.26 1003.67 1004.13 1004.71 1004.94 1005.23 1005.52 1005.95 1005.87 1006.03 1005.83 1006.41 1006.74 1007.16 1007.64 1008.06 1008.52 1008.92 1009.43 1010.44 1011.31 1011.93 1012.43 1013.04 1013.32 1013.69 1014.55 1015.17 1015.87
997.53 998.23 999.05 999.80 1000.33 1000.89 1001.30 1001.63 1002.00 1002.32 1002.51 1002.68 1002.88 1003.37 1003.66 1004.16 1004.68 1005.03 1004.95 1005.24 1005.35 1005.79 1005.96 1006.00 1005.95 1006.20 1006.67 1007.27 1007.41 1008.00 1008.40 1009.14 1009.71 1010.82 1011.43 1012.08 1012.69 1013.17 1013.62 1014.27 1014.85 1015.72 1016.67
997.91 998.63 999.40 999.97 1000.53 1001.08 1001.54 1001.92 1002.21 1002.43 1002.62 1002.88 1003.46 1003.61 1004.17 1004.78 1005.93 1006.13 1005.89 1005.44 1005.84 1005.97 1005.93 1006.09 1006.77 1007.03 1007.24 1007.71 1008.23 1007.93 1008.41 1009.06 1009.95 1010.70 1011.49 1012.14 1012.83 1013.31 1013.89 1014.42 1015.07 1015.88 1017.12
998.23 998.85 999.42 999.98 1000.84 1001.53 1002.14 1002.31 1002.36 1002.76 1003.20 1003.52 1003.78 1003.75 1004.72 1005.76 1006.38 1006.35 1006.26 1006.15 1006.14 1006.26 1006.31 1006.45 1006.33 1007.04 1007.61 1008.06 1008.58 1008.72 1009.13 1009.36 1009.88 1010.52 1011.40 1012.22 1012.91 1013.35 1013.78 1014.60 1015.35 1015.97 1016.85
998.04 998.68 999.60 1000.42 1001.29 1001.85 1002.17 1002.16 1002.74 1003.30 1003.74 1004.13 1004.07 1004.45 1005.05 1006.35 1006.70 1006.71 1006.73 1006.66 1006.75 1006.75 1006.90 1006.91 1006.78 1007.54 1007.74 1008.25 1008.53 1008.91 1009.43 1009.94 1010.31 1010.66 1011.47 1012.34 1013.03 1013.65 1013.99 1014.49 1015.36 1016.40 1017.59
998.49 999.25 1000.11 1000.78 1001.61 1001.75 1001.76 1002.47 1003.20 1003.58 1004.15 1004.32 1004.37 1004.68 1005.23 1006.46 1006.99 1006.98 1006.98 1007.29 1007.45 1007.45 1007.39 1007.48 1007.60 1007.96 1008.57 1008.73 1008.92 1009.44 1010.09 1010.96 1011.19 1011.53 1012.13 1012.69 1013.47 1013.93 1014.26 1014.88 1015.87 1016.56 1017.65
999.18 999.22 999.33 1000.00 1001.43 1001.51 1002.00 1002.90 1003.21 1003.76 1004.08 1004.16 1004.61 1005.07 1006.03 1006.54 1007.13 1007.27 1007.24 1007.44 1007.63 1007.81 1008.08 1008.24 1008.55 1008.61 1009.14 1009.43 1009.65 1010.14 1010.78 1011.51 1011.99 1012.75 1013.53 1013.99 1013.98 1014.69 1014.94 1015.07 1015.70 1016.49 1017.18
999.08 999.04 1000.18 1000.63 1001.03 1001.69 1002.38 1003.10 1003.47 1003.66 1003.78 1004.33 1004.91 1005.39 1006.13 1006.55 1007.43 1007.65 1007.62 1007.55 1007.76 1008.00 1008.41 1008.47 1008.97 1009.42 1009.71 1009.87 1010.17 1010.59 1011.27 1011.83 1012.59 1013.06 1013.67 1014.26 1014.66 1015.10 1015.37 1015.61 1016.09 1016.39 1016.65
998.47 999.76 1000.68 1001.30 1001.73 1002.17 1002.75 1003.12 1003.35 1003.93 1004.29 1004.62 1005.03 1005.37 1006.28 1007.03 1007.62 1007.90 1007.84 1007.83 1008.02 1008.03 1008.60 1009.15 1009.93 1009.98 1010.25 1010.54 1010.94 1011.35 1011.86 1012.38 1012.95 1013.48 1014.00 1014.61 1014.98 1015.42 1015.78 1016.07 1016.31 1016.06 1015.99
998.93 1000.09 1000.63 1001.42 1001.77 1002.19 1002.95 1003.36 1003.45 1003.83 1003.79 1004.37 1005.06 1005.29 1006.46 1007.27 1008.05 1008.19 1008.25 1008.31 1008.22 1008.28 1008.98 1009.84 1010.35 1010.56 1010.82 1011.26 1011.68 1012.04 1012.30 1012.69 1013.19 1013.70 1014.22 1014.77 1015.15 1015.37 1015.63 1016.06 1016.21 1016.17 1016.00
999.41 1000.23 1000.71 1001.33 1001.82 1002.08 1002.82 1003.60 1004.04 1004.39 1004.69 1004.94 1005.33 1005.62 1006.46 1007.53 1008.10 1008.35 1008.69 1008.89 1009.04 1009.44 1010.00 1010.41 1010.66 1010.94 1011.25 1011.83 1012.21 1012.27 1012.54 1012.85 1013.20 1013.72 1014.22 1014.68 1015.00 1015.30 1015.54 1015.61 1015.66 1015.58 1015.45
999.68 1000.36 1000.51 1001.14 1001.57 1002.45 1003.84 1004.50 1004.54 1005.22 1005.42 1005.36 1005.62 1005.60 1006.17 1007.25 1007.99 1008.23 1008.37 1008.55 1009.03 1009.83 1010.12 1010.33 1010.62 1011.07 1011.55 1012.01 1012.17 1012.27 1012.42 1012.79 1012.99 1013.56 1014.00 1014.22 1014.37 1014.81 1014.87 1014.97 1014.98 1014.98 1014.62
999.71 999.93 1000.07 1000.36 1001.11 1002.21 1003.21 1004.60 1005.62 1005.97 1006.14 1006.05 1005.86 1005.30 1005.76 1006.82 1008.04 1008.57 1008.85 1009.02 1009.57 1009.93 1009.77 1009.74 1010.24 1010.59 1010.93 1011.04 1011.03 1011.69 1011.85 1012.39 1012.61 1012.96 1013.19 1013.40 1013.66 1013.81 1014.01 1014.14 1013.96 1014.29 1014.27
999.24 999.59 999.75 1000.20 1001.05 1001.91 1002.23 1003.11 1004.92 1006.47 1006.42 1006.55 1006.54 1006.46 1006.84 1007.90 1008.51 1009.01 1009.40 1009.63 1009.86 1010.19 1009.84 1009.60 1009.79 1009.97 1010.30 1010.77 1011.15 1011.42 1011.47 1011.86 1012.26 1012.41 1012.65 1012.53 1012.68 1012.75 1013.02 1013.21 1013.43 1013.57 1013.76
999.19 999.72 999.49 1000.07 1000.42 1001.59 1002.61 1003.01 1003.52 1004.79 1005.53 1006.68 1007.75 1007.82 1008.32 1008.69 1009.05 1009.37 1009.74 1010.08 1010.47 1010.16 1009.65 1009.58 1009.55 1009.55 1009.73 1010.27 1010.45 1010.75 1011.01 1011.44 1011.37 1011.67 1011.76 1011.73 1011.75 1011.87 1012.31 1012.43 1012.74 1012.84 1012.96
999.38 999.31 999.14 999.68 1000.34 1000.92 1002.29 1003.03 1003.42 1003.69 1004.44 1006.01 1007.64 1008.74 1009.30 1009.46 1009.72 1009.84 1009.90 1009.40 1009.48 1009.36 1009.43 1009.19 1009.35 1009.58 1009.82 1010.00 1009.86 1010.17 1010.48 1010.81 1010.90 1010.94 1010.96 1010.90 1010.98 1011.25 1011.53 1012.01 1012.07 1012.22 1012.33
999.54 999.46 999.64 999.49 1000.31 1000.56 1001.35 1002.61 1003.32 1003.67 1003.88 1004.96 1005.96 1007.78 1009.11 1009.51 1009.93 1010.24 1009.90 1009.41 1009.03 1008.80 1008.77 1008.76 1009.06 1009.32 1009.42 1009.40 1009.36 1009.56 1009.96 1010.32 1010.27 1010.33 1010.43 1010.75 1011.05 1011.25 1011.25 1011.33 1011.48 1011.46 1011.67
999.07 999.91 1000.04 999.51 999.95 1000.04 1000.58 1001.10 1001.70 1002.37 1003.15 1004.21 1005.18 1007.08 1007.81 1008.23 1008.97 1009.24 1008.92 1008.97 1008.51 1008.11 1008.22 1008.33 1008.57 1008.62 1008.51 1008.51 1009.22 1009.38 1009.68 1010.15 1009.98 1010.00 1010.03 1010.22 1010.47 1010.69 1010.89 1010.76 1010.74 1010.81 1010.85
998.99 1000.03 1000.14 999.43 999.82 1000.10 1000.55 1001.06 1001.75 1002.04 1002.35 1003.08 1005.13 1007.05 1007.37 1007.81 1006.89 1007.32 1007.35 1007.48 1007.20 1006.78 1007.00 1007.60 1008.03 1008.01 1008.05 1008.09 1008.25 1008.36 1008.51 1008.79 1009.04 1009.20 1009.54 1009.72 1009.75 1009.91 1010.05 1010.10 1010.21 1010.23 1010.22
999.31 999.70 1000.05 999.81 1000.18 1000.91 1001.20 1001.17 1001.59 1001.92 1002.37 1002.92 1004.53 1006.13 1007.20 1006.86 1006.27 1005.82 1006.00 1006.15 1006.32 1006.48 1006.69 1007.02 1007.19 1007.20 1007.40 1007.61 1007.62 1007.90 1008.02 1008.18 1008.52 1009.00 1009.10 1009.05 1009.06 1009.09 1009.05 1009.08 1009.20 1009.23 1009.22
1002.13 1001.68 1001.46 1001.15 1002.13 1001.54 1001.80 1002.01 1002.67 1003.05 1004.58 1004.61 1004.52 1005.44 1006.03 1006.18 1005.69 1005.54 1005.78 1005.88 1006.10 1006.31 1006.57 1006.88 1007.08 1007.27 1007.42 1007.70 1007.96 1008.42 1008.96 1008.96 1007.92 1008.02 1008.43 1008.59 1008.48 1008.36 1008.53 1008.42 1008.30 1008.27 1008.31
1005.39 1005.23 1005.00 1004.62 1004.52 1005.07 1005.00 1005.40 1005.88 1006.18 1006.62 1006.89 1007.46 1007.53 1007.69 1007.78 1007.98 1008.21 1008.35 1008.38 1009.00 1009.10 1009.29 1009.58 1010.23 1010.19 1010.42 1011.34 1011.63 1011.87 1011.80 1010.97 1010.29 1009.73 1008.28 1008.25 1008.05 1008.05 1008.03 1007.77 1007.69 1007.59 1007.57
1007.63 1007.68 1007.82 1007.93 1007.88 1008.11 1008.32 1008.66 1009.21 1009.56 1009.87 1010.14 1010.34 1010.46 1010.56 1010.77 1011.04 1011.03 1011.01 1010.92 1010.91 1010.90 1010.98 1011.08 1011.54 1012.16 1012.11 1012.47 1013.06 1013.01 1012.59 1012.10 1011.69 1011.27 1010.35 1009.20 1008.79 1008.40 1008.12 1007.69 1007.42 1007.22 1007.00
Thickness
5749 5745 5741 5737 5733 5730 5725 5721 5717 5715 5711 5705 5699 5693 5688 5683 5679 5673 5671 5668 5660 5653 5650 5649 5647 5645 5648 5644 5641 5635 5630 5631 5631 5630 5635 5639 5641 5642 5643 5640 5640 5639 5636
5739 5734 5730 5730 5727 5722 5717 5714 5712 5707 5704 5699 5693 5688 5684 5681 5675 5670 5665 5664 5656 5650 5647 5649 5649 5646 5646 5646 5643 5637 5635 5637 5635 5631 5630 5632 5635 5637 5636 5635 5635 5634 5632
5734 5726 5724 5721 5719 5714 5710 5707 5704 5699 5695 5691 5688 5684 5682 5679 5673 5669 5663 5660 5655 5652 5648 5647 5650 5646 5644 5643 5644 5640 5639 5638 5639 5639 5628 5628 5631 5631 5629 5630 5630 5629 5626
5727 5722 5716 5712 5710 5706 5703 5699 5696 5693 5688 5685 5684 5683 5680 5676 5671 5665 5661 5656 5651 5648 5649 5647 5651 5647 5646 5644 5642 5641 5640 5638 5636 5631 5627 5627 5627 5626 5627 5627 5624 5623 5621
5720 5716 5711 5708 5705 5700 5696 5692 5689 5686 5683 5682 5679 5675 5674 5669 5664 5660 5658 5653 5649 5645 5643 5646 5649 5648 5647 5643 5643 5640 5640 5636 5633 5627 5626 5626 5625 5626 5625 5624 5623 5619 5615
5713 5708 5706 5703 5699 5693 5689 5685 5682 5679 5678 5675 5670 5670 5665 5661 5648 5645 5647 5649 5644 5640 5643 5643 5641 5640 5639 5636 5635 5640 5641 5635 5632 5629 5626 5625 5624 5625 5624 5624 5622 5620 5613
5706 5704 5702 5699 5691 5685 5680 5679 5678 5673 5670 5667 5665 5667 5659 5652 5642 5641 5641 5642 5641 5640 5640 5640 5643 5641 5638 5636 5631 5634 5633 5635 5635 5634 5629 5625 5623 5625 5625 5622 5620 5619 5613
5705 5703 5698 5691 5684 5679 5678 5678 5673 5667 5663 5660 5661 5659 5655 5644 5637 5636 5635 5638 5636 5637 5636 5637 5640 5636 5637 5635 5635 5634 5633 5633 5633 5633 5629 5626 5624 5622 5623 5623 5619 5613 5607
5699 5695 5690 5686 5678 5678 5678 5672 5666 5663 5658 5657 5658 5656 5653 5641 5634 5634 5635 5631 5629 5630 5632 5633 5634 5633 5628 5629 5631 5629 5626 5624 5626 5627 5626 5624 5622 5621 5620 5618 5613 5611 5604
5691 5694 5697 5692 5678 5678 5674 5665 5663 5660 5658 5658 5654 5652 5643 5640 5632 5631 5632 5630 5627 5626 5626 5627 5622 5628 5623 5626 5627 5624 5620 5619 5620 5618 5615 5615 5616 5614 5614 5615 5614 5610 5607
5692 5696 5686 5683 5680 5675 5668 5661 5659 5659 5660 5655 5651 5648 5642 5640 5632 5628 5629 5630 5626 5625 5622 5624 5624 5619 5621 5624 5626 5625 5620 5619 5615 5616 5614 5613 5612 5612 5611 5611 5612 5612 5611
5698 5686 5678 5674 5671 5668 5663 5661 5660 5654 5653 5652 5650 5648 5642 5637 5630 5626 5626 5629 5626 5627 5623 5621 5616 5616 5618 5620 5621 5617 5616 5617 5615 5614 5613 5610 5611 5612 5612 5611 5611 5615 5618
5691 5680 5677 5670 5669 5667 5660 5657 5658 5657 5659 5655 5650 5651 5641 5636 5630 5625 5625 5625 5627 5628 5624 5616 5612 5613 5614 5614 5612 5613 5615 5617 5615 5613 5611 5609 5610 5612 5612 5612 5613 5617 5622
5684 5676 5674 5668 5666 5667 5664 5658 5656 5654 5653 5653 5650 5648 5643 5635 5632 5632 5630 5628 5625 5623 5615 5615 5615 5616 5617 5613 5612 5615 5616 5616 5616 5614 5612 5611 5612 5612 5613 5617 5620 5624 5628
5680 5674 5675 5670 5667 5663 5653 5652 5656 5650 5651 5654 5653 5653 5647 5639 5637 5637 5637 5636 5633 5625 5623 5622 5620 5618 5616 5615 5616 5617 5618 5617 5619 5616 5614 5615 5618 5617 5621 5625 5628 5631 5636
5677 5678 5679 5676 5672 5665 5661 5654 5639 5639 5639 5643 5647 5657 5656 5645 5636 5634 5632 5631 5629 5626 5632 5632 5628 5626 5624 5626 5629 5624 5625 5623 5624 5624 5623 5625 5625 5628 5630 5633 5638 5638 5639
5682 5682 5682 5678 5672 5667 5668 5665 5652 5640 5638 5640 5642 5644 5646 5638 5633 5630 5628 5628 5627 5626 5634 5637 5635 5634 5632 5629 5628 5629 5632 5632 5632 5632 5632 5636 5638 5641 5640 5641 5642 5643 5643
5684 5680 5685 5680 5679 5671 5664 5664 5664 5656 5655 5648 5635 5637 5633 5632 5631 5629 5627 5627 5628 5630 5637 5637 5639 5642 5641 5637 5638 5637 5638 5637 5640 5640 5641 5644 5647 5648 5646 5647 5647 5647 5648
5682 5686 5690 5687 5682 5679 5668 5663 5663 5664 5661 5652 5642 5633 5628 5628 5627 5627 5629 5639 5638 5640 5640 5642 5643 5642 5641 5643 5647 5645 5645 5644 5646 5648 5649 5652 5654 5654 5652 5651 5652 5648 5649
5681 5683 5683 5691 5684 5683 5678 5666 5663 5662 5665 5660 5657 5646 5634 5635 5634 5632 5634 5638 5642 5645 5647 5648 5647 5647 5647 5650 5652 5653 5651 5649 5652 5653 5654 5654 5653 5652 5653 5654 5654 5655 5654
5687 5683 5680 5692 5689 5690 5687 5683 5681 5676 5671 5666 5666 5656 5645 5652 5644 5641 5644 5642 5647 5652 5653 5653 5653 5655 5658 5659 5653 5653 5652 5649 5653 5654 5656 5655 5655 5653 5654 5656 5658 5659 5658
5689 5681 5684 5692 5692 5691 5689 5688 5683 5683 5683 5680 5668 5657 5649 5656 5665 5660 5659 5658 5661 5667 5667 5662 5659 5661 5662 5662 5661 5661 5661 5660 5660 5660 5658 5659 5660 5660 5660 5660 5659 5660 5660
5687 5685 5685 5691 5690 5684 5685 5689 5687 5687 5685 5685 5675 5666 5660 5665 5668 5673 5671 5671 5671 5671 5671 5669 5668 5669 5670 5668 5668 5667 5665 5665 5664 5662 5662 5663 5664 5664 5665 5665 5665 5664 5664
5662 5668 5672 5679 5673 5681 5682 5681 5679 5677 5661 5666 5674 5670 5668 5669 5674 5674 5672 5673 5674 5673 5672 5671 5670 5669 5669 5667 5664 5662 5660 5661 5669 5669 5667 5666 5668 5669 5667 5667 5668 5668 5667
5628 5632 5639 5647 5652 5650 5654 5653 5652 5651 5649 5649 5646 5650 5652 5651 5650 5650 5650 5650 5646 5645 5645 5645 5643 5645 5644 5637 5636 5635 5638 5645 5649 5654 5662 5664 5665 5665 5664 5665 5665 5666 5665
5608 5611 5612 5614 5618 5620 5622 5622 5620 5619 5617 5617 5618 5619 5621 5621 5620 5622 5623 5625 5627 5627 5628 5627 5624 5621 5622 5620 5617 5620 5624 5628 5631 5636 5641 5649 5652 5654 5655 5657 5659 5661 5662